Location: *
(38.9800°N, 16.0500°E)
Time: 22:23:27
(UTC+00:00)

Cosmos 2297 Rocket - Pass Details

Date: 07 April 2020
Orbit: 840 x 843 km, 71.0° (Epoch: 24 May)

Event Time Altitude Azimuth Distance (km) Brightness Sun altitude
Exits shadow 00:51:11 27° 70° (ENE) 1,552 3.9 -37.1°
Drops below altitude 10° 00:54:26 10° 42° (NE) 2,467 5.4 -36.7°
Sets 00:57:05 0° 33° (NNE) 3,406 6.3 -36.4°
